Location: Moscow
(55.7500°N, 37.5830°E)
Time: 09:54:01
(UTC+03:00)

Vanguard 1 Rocket - Pass Details

Date: 05 December 2021
Orbit: 651 x 4224 km, 34.3° (Epoch: 23 January)

Event Time Altitude Azimuth Distance (km) Brightness Sun altitude
Exits shadow 05:43:28 16° 235° (SW) 4,584 10.5 -23.4°
Maximum altitude 05:54:16 34° 183° (S) 4,451 10.8 -21.9°
Drops below altitude 10° 06:13:48 10° 130° (SE) 7,312 12.9 -19.2°
Sets 06:20:44 0° 123° (ESE) 8,463 13.7 -18.3°
